| time (UTC) | temp F | wind direction | speed MPH | gust MPH | rain 1hr in | rain 24hr in | rain mn in | humidity % | barometer mb |
| 20260506202518 | 45 | 280 | 5.0 | 11.0 | 0.00 | 0.18 | 0.18 | 59 | 1017.5 |
| 20260506202015 | 45 | 297 | 5.0 | 13.0 | 0.00 | 0.18 | 0.18 | 57 | 1017.4 |
| 20260506201534 | 45 | 273 | 7.0 | 14.0 | 0.00 | 0.18 | 0.18 | 58 | 1017.5 |
| 20260506201014 | 44 | 295 | 8.0 | 14.0 | 0.00 | 0.18 | 0.18 | 66 | 1017.5 |
| 20260506200513 | 44 | 290 | 8.0 | 14.0 | 0.00 | 0.18 | 0.18 | 63 | 1017.4 |
| 20260506200035 | 44 | 285 | 8.0 | 14.0 | 0.00 | 0.18 | 0.18 | 67 | 1017.4 |
| 20260506195515 | 44 | 283 | 7.0 | 13.0 | 0.00 | 0.18 | 0.18 | 62 | 1017.4 |
| 20260506195015 | 44 | 295 | 4.0 | 8.0 | 0.00 | 0.18 | 0.18 | 62 | 1017.2 |
| 20260506194537 | 43 | 276 | 3.0 | 9.0 | 0.00 | 0.18 | 0.18 | 66 | 1017.2 |
| 20260506194018 | 43 | 208 | 4.0 | 9.0 | 0.00 | 0.18 | 0.18 | 70 | 1017.3 |
| 20260506193515 | 42 | 223 | 4.0 | 9.0 | 0.00 | 0.18 | 0.18 | 70 | 1017.3 |
| 20260506193032 | 40 | 209 | 3.0 | 9.0 | 0.00 | 0.18 | 0.18 | 69 | 1017.4 |
| 20260506192515 | 39 | 295 | 6.0 | 19.0 | 0.00 | 0.18 | 0.18 | 68 | 1017.4 |
| 20260506192014 | 39 | 276 | 8.0 | 22.0 | 0.00 | 0.18 | 0.18 | 70 | 1017.5 |
| 20260506191534 | 40 | 311 | 17.0 | 23.0 | 0.00 | 0.18 | 0.18 | 69 | 1017.5 |
| 20260506191016 | 41 | 284 | 15.0 | 23.0 | 0.00 | 0.18 | 0.18 | 64 | 1017.3 |
| 20260506190516 | 42 | 300 | 9.0 | 17.0 | 0.00 | 0.18 | 0.18 | 69 | 1017.1 |
| 20260506190033 | 42 | 304 | 11.0 | 17.0 | 0.00 | 0.18 | 0.18 | 63 | 1017.1 |
| 20260506185515 | 43 | 327 | 9.0 | 16.0 | 0.00 | 0.18 | 0.18 | 64 | 1017.0 |
| 20260506185015 | 42 | 332 | 6.0 | 11.0 | 0.00 | 0.18 | 0.18 | 72 | 1016.9 |
| 20260506184537 | 40 | 314 | 6.0 | 10.0 | 0.00 | 0.18 | 0.18 | 74 | 1016.9 |
| 20260506184015 | 40 | 291 | 4.0 | 16.0 | 0.00 | 0.18 | 0.18 | 76 | 1016.9 |
| 20260506183515 | 40 | 314 | 9.0 | 19.0 | 0.00 | 0.18 | 0.18 | 74 | 1017.0 |
| 20260506183030 | 42 | 330 | 12.0 | 19.0 | 0.00 | 0.18 | 0.18 | 72 | 1017.0 |
| 20260506182516 | 43 | 315 | 11.0 | 16.0 | 0.00 | 0.18 | 0.18 | 72 | 1016.8 |
| 20260506182019 | 43 | 16 | 8.0 | 14.0 | 0.00 | 0.18 | 0.18 | 72 | 1016.8 |
| 20260506181534 | 42 | 30 | 3.0 | 12.0 | 0.00 | 0.18 | 0.18 | 75 | 1016.8 |
| 20260506181015 | 42 | 340 | 6.0 | 11.0 | 0.00 | 0.18 | 0.18 | 73 | 1016.6 |
| 20260506180516 | 41 | 359 | 6.0 | 11.0 | 0.00 | 0.18 | 0.18 | 82 | 1016.7 |
| 20260506180034 | 40 | 312 | 7.0 | 14.0 | 0.00 | 0.18 | 0.18 | 83 | 1016.8 |
| 20260506175516 | 40 | 335 | 8.0 | 14.0 | 0.00 | 0.18 | 0.18 | 83 | 1016.7 |
| 20260506175017 | 40 | 330 | 6.0 | 9.0 | 0.01 | 0.18 | 0.18 | 84 | 1016.6 |
| 20260506174531 | 40 | 319 | 3.0 | 8.0 | 0.01 | 0.18 | 0.18 | 81 | 1016.5 |
| 20260506174013 | 41 | 270 | 4.0 | 8.0 | 0.01 | 0.18 | 0.18 | 83 | 1016.4 |
| 20260506173514 | 40 | 291 | 5.0 | 8.0 | 0.02 | 0.18 | 0.18 | 88 | 1016.5 |
| 20260506173038 | 39 | 287 | 3.0 | 8.0 | 0.03 | 0.18 | 0.18 | 87 | 1016.4 |
| 20260506172515 | 39 | 284 | 6.0 | 8.0 | 0.04 | 0.18 | 0.18 | 87 | 1016.5 |
| 20260506172016 | 39 | 294 | 5.0 | 9.0 | 0.05 | 0.18 | 0.18 | 88 | 1016.4 |
| 20260506171534 | 39 | 276 | 4.0 | 9.0 | 0.06 | 0.18 | 0.18 | 88 | 1016.4 |
| 20260506171014 | 38 | 283 | 2.0 | 6.0 | 0.07 | 0.18 | 0.18 | 90 | 1016.4 |
| 20260506170513 | 38 | 0 | 2.0 | 6.0 | 0.08 | 0.18 | 0.18 | 91 | 1016.1 |
| 20260506170036 | 38 | 205 | 2.0 | 6.0 | 0.08 | 0.18 | 0.18 | 92 | 1016.2 |
| 20260506165514 | 38 | 201 | 2.0 | 7.0 | 0.09 | 0.18 | 0.18 | 93 | 1016.0 |
| 20260506165014 | 38 | 218 | 3.0 | 7.0 | 0.08 | 0.17 | 0.17 | 93 | 1016.1 |
| 20260506164534 | 38 | 164 | 3.0 | 6.0 | 0.08 | 0.17 | 0.17 | 94 | 1015.9 |
| 20260506164013 | 37 | 196 | 3.0 | 6.0 | 0.08 | 0.17 | 0.17 | 95 | 1015.9 |
| 20260506163515 | 37 | 158 | 4.0 | 7.0 | 0.07 | 0.16 | 0.16 | 96 | 1015.8 |
| 20260506163032 | 36 | 173 | 4.0 | 7.0 | 0.06 | 0.15 | 0.15 | 96 | 1015.7 |
| 20260506162514 | 36 | 219 | 5.0 | 8.0 | 0.05 | 0.14 | 0.14 | 96 | 1015.7 |
| 20260506162014 | 35 | 179 | 5.0 | 8.0 | 0.04 | 0.13 | 0.13 | 96 | 1015.8 |
| 20260506161533 | 35 | 202 | 6.0 | 8.0 | 0.03 | 0.12 | 0.12 | 95 | 1015.7 |
| 20260506161013 | 34 | 175 | 6.0 | 7.0 | 0.03 | 0.11 | 0.11 | 95 | 1015.5 |
| 20260506160516 | 33 | 163 | 4.0 | 5.0 | 0.03 | 0.10 | 0.10 | 95 | 1015.4 |
| 20260506160039 | 33 | 186 | 3.0 | 4.0 | 0.03 | 0.10 | 0.10 | 95 | 1015.4 |
| 20260506155514 | 33 | 201 | 2.0 | 4.0 | 0.03 | 0.09 | 0.09 | 94 | 1015.4 |
| 20260506155013 | 32 | 0 | 0.0 | 4.0 | 0.04 | 0.09 | 0.09 | 94 | 1015.1 |
| 20260506154534 | 32 | 121 | 2.0 | 5.0 | 0.04 | 0.09 | 0.09 | 94 | 1014.5 |
| 20260506154014 | 32 | 291 | 1.0 | 6.0 | 0.05 | 0.09 | 0.09 | 94 | 1015.2 |
| 20260506153514 | 32 | 297 | 4.0 | 8.0 | 0.07 | 0.09 | 0.09 | 94 | 1015.2 |
| 20260506153031 | 32 | 293 | 5.0 | 11.0 | 0.08 | 0.09 | 0.09 | 93 | 1015.2 |
| 20260506152515 | 33 | 290 | 8.0 | 13.0 | 0.08 | 0.09 | 0.09 | 93 | 1015.3 |
| 20260506152015 | 33 | 293 | 8.0 | 16.0 | 0.08 | 0.09 | 0.09 | 93 | 1015.1 |
| 20260506151532 | 33 | 299 | 10.0 | 17.0 | 0.09 | 0.09 | 0.09 | 93 | 1015.0 |
| 20260506151013 | 33 | 298 | 12.0 | 17.0 | 0.08 | 0.08 | 0.08 | 93 | 1015.0 |
| 20260506150514 | 34 | 292 | 10.0 | 20.0 | 0.07 | 0.07 | 0.07 | 92 | 1014.8 |
| 20260506150032 | 34 | 295 | 11.0 | 20.0 | 0.07 | 0.07 | 0.07 | 91 | 1014.7 |
| 20260506145514 | 36 | 290 | 12.0 | 20.0 | 0.06 | 0.06 | 0.06 | 92 | 1014.6 |
| 20260506145014 | 36 | 285 | 11.0 | 16.0 | 0.05 | 0.05 | 0.05 | 92 | 1014.6 |
| 20260506144531 | 37 | 289 | 9.0 | 20.0 | 0.04 | 0.04 | 0.04 | 92 | 1014.5 |
| 20260506144018 | 37 | 290 | 12.0 | 20.0 | 0.03 | 0.03 | 0.03 | 90 | 1014.4 |
| 20260506143516 | 37 | 291 | 13.0 | 20.0 | 0.02 | 0.02 | 0.02 | 90 | 1014.3 |
| 20260506143035 | 38 | 283 | 14.0 | 20.0 | 0.01 | 0.01 | 0.01 | 89 | 1014.3 |
| 20260506142513 | 38 | 282 | 15.0 | 22.0 | 0.01 | 0.01 | 0.01 | 87 | 1014.1 |
| 20260506142016 | 39 | 296 | 15.0 | 22.0 | 0.01 | 0.01 | 0.01 | 83 | 1014.0 |
| 20260506141531 | 41 | 299 | 13.0 | 22.0 | 0.00 | 0.00 | 0.00 | 75 | 1013.5 |
| 20260506141016 | 41 | 278 | 5.0 | 9.0 | 0.00 | 0.00 | 0.00 | 74 | 1013.2 |
| 20260506140515 | 42 | 306 | 5.0 | 9.0 | 0.00 | 0.00 | 0.00 | 72 | 1013.0 |
| 20260506140035 | 42 | 349 | 4.0 | 7.0 | 0.00 | 0.00 | 0.00 | 71 | 1012.8 |
| 20260506135513 | 42 | 283 | 4.0 | 7.0 | 0.00 | 0.00 | 0.00 | 71 | 1012.7 |
| 20260506135018 | 41 | 18 | 2.0 | 4.0 | 0.00 | 0.00 | 0.00 | 73 | 1012.6 |
| 20260506134532 | 41 | 22 | 2.0 | 3.0 | 0.00 | 0.00 | 0.00 | 73 | 1012.6 |
| 20260506134014 | 41 | 0 | 0.0 | 1.0 | 0.00 | 0.00 | 0.00 | 73 | 1012.5 |
| 20260506133512 | 41 | 0 | 0.0 | 1.0 | 0.00 | 0.00 | 0.00 | 73 | 1012.4 |
| 20260506133031 | 41 | 0 | 0.0 | 1.0 | 0.00 | 0.00 | 0.00 | 73 | 1012.3 |
| 20260506132518 | 41 | 0 | 0.0 | 4.0 | 0.00 | 0.00 | 0.00 | 73 | 1012.4 |
| 20260506132018 | 41 | 0 | 1.0 | 4.0 | 0.00 | 0.00 | 0.00 | 73 | 1012.4 |
| 20260506131544 | 41 | 158 | 2.0 | 5.0 | 0.00 | 0.00 | 0.00 | 74 | 1012.2 |
| 20260506131014 | 40 | 141 | 2.0 | 5.0 | 0.00 | 0.00 | 0.00 | 74 | 1012.1 |
| 20260506130514 | 40 | 117 | 1.0 | 4.0 | 0.00 | 0.00 | 0.00 | 75 | 1012.2 |
| 20260506130038 | 40 | 111 | 1.0 | 4.0 | 0.00 | 0.00 | 0.00 | 76 | 1012.2 |
| 20260506125514 | 40 | 115 | 2.0 | 4.0 | 0.00 | 0.00 | 0.00 | 76 | 1012.0 |
| 20260506125015 | 40 | 104 | 2.0 | 3.0 | 0.00 | 0.00 | 0.00 | 77 | 1012.0 |
| 20260506124532 | 40 | 109 | 0.0 | 3.0 | 0.00 | 0.00 | 0.00 | 76 | 1012.1 |
| 20260506124013 | 40 | 103 | 0.0 | 5.0 | 0.00 | 0.00 | 0.00 | 74 | 1012.0 |
| 20260506123514 | 41 | 121 | 3.0 | 7.0 | 0.00 | 0.00 | 0.00 | 73 | 1011.9 |
| 20260506123031 | 41 | 160 | 2.0 | 7.0 | 0.00 | 0.00 | 0.00 | 72 | 1011.9 |
| 20260506122513 | 41 | 187 | 3.0 | 6.0 | 0.00 | 0.00 | 0.00 | 72 | 1011.9 |
| 20260506122012 | 41 | 162 | 2.0 | 7.0 | 0.00 | 0.00 | 0.00 | 72 | 1012.0 |
| 20260506121530 | 41 | 188 | 2.0 | 7.0 | 0.00 | 0.00 | 0.00 | 72 | 1011.9 |
| 20260506121018 | 40 | 147 | 3.0 | 7.0 | 0.00 | 0.00 | 0.00 | 74 | 1012.0 |
| 20260506120518 | 41 | 86 | 2.0 | 6.0 | 0.00 | 0.00 | 0.00 | 74 | 1011.9 |
| 20260506120034 | 41 | 144 | 0.0 | 1.0 | 0.00 | 0.00 | 0.00 | 72 | 1011.8 |
| 20260506115514 | 41 | 0 | 0.0 | 2.0 | 0.00 | 0.00 | 0.00 | 71 | 1011.9 |
| 20260506115015 | 41 | 0 | 0.0 | 2.0 | 0.00 | 0.00 | 0.00 | 70 | 1011.8 |
| 20260506114531 | 42 | 70 | 0.0 | 1.0 | 0.00 | 0.00 | 0.00 | 70 | 1011.9 |
| 20260506114015 | 42 | 0 | 0.0 | 1.0 | 0.00 | 0.00 | 0.00 | 69 | 1011.9 |
| 20260506113516 | 42 | 0 | 0.0 | 3.0 | 0.00 | 0.00 | 0.00 | 70 | 1011.9 |
| 20260506113032 | 42 | 0 | 1.0 | 3.0 | 0.00 | 0.00 | 0.00 | 70 | 1011.9 |
| 20260506112513 | 42 | 0 | 1.0 | 4.0 | 0.00 | 0.00 | 0.00 | 72 | 1011.9 |
| 20260506112015 | 41 | 164 | 0.0 | 4.0 | 0.00 | 0.00 | 0.00 | 71 | 1011.9 |
| 20260506111533 | 41 | 0 | 0.0 | 0.0 | 0.00 | 0.00 | 0.00 | 73 | 1011.7 |
| 20260506111014 | 41 | 0 | 0.0 | 0.0 | 0.00 | 0.00 | 0.00 | 74 | 1011.8 |
| 20260506110515 | 41 | 0 | 0.0 | 1.0 | 0.00 | 0.00 | 0.00 | 72 | 1012.0 |
| 20260506110030 | 41 | 0 | 0.0 | 3.0 | 0.00 | 0.00 | 0.00 | 73 | 1011.9 |
| 20260506105514 | 42 | 0 | 0.0 | 3.0 | 0.00 | 0.00 | 0.00 | 71 | 1011.7 |
| 20260506105016 | 42 | 149 | 1.0 | 4.0 | 0.00 | 0.00 | 0.00 | 70 | 1011.5 |
| 20260506104530 | 42 | 177 | 0.0 | 5.0 | 0.00 | 0.00 | 0.00 | 71 | 1011.5 |
| 20260506104014 | 41 | 195 | 3.0 | 10.0 | 0.00 | 0.00 | 0.00 | 71 | 1011.5 |
| 20260506103514 | 42 | 163 | 5.0 | 10.0 | 0.00 | 0.00 | 0.00 | 72 | 1011.3 |
| 20260506103038 | 42 | 176 | 7.0 | 12.0 | 0.00 | 0.00 | 0.00 | 70 | 1011.3 |
| 20260506102514 | 42 | 145 | 8.0 | 12.0 | 0.00 | 0.00 | 0.00 | 71 | 1011.3 |
| 20260506102014 | 42 | 162 | 6.0 | 13.0 | 0.00 | 0.00 | 0.00 | 70 | 1011.5 |
| 20260506101536 | 42 | 171 | 8.0 | 14.0 | 0.00 | 0.00 | 0.00 | 67 | 1011.3 |
| 20260506101013 | 42 | 155 | 10.0 | 14.0 | 0.00 | 0.00 | 0.00 | 67 | 1011.3 |
| 20260506100513 | 42 | 159 | 8.0 | 14.0 | 0.00 | 0.00 | 0.00 | 67 | 1011.3 |
| 20260506100037 | 43 | 198 | 8.0 | 14.0 | 0.00 | 0.00 | 0.00 | 66 | 1011.3 |
| 20260506095513 | 43 | 158 | 7.0 | 16.0 | 0.00 | 0.00 | 0.00 | 64 | 1011.3 |
| 20260506095013 | 43 | 174 | 10.0 | 16.0 | 0.00 | 0.00 | 0.00 | 64 | 1011.3 |
| 20260506094543 | 43 | 182 | 9.0 | 14.0 | 0.00 | 0.00 | 0.00 | 63 | 1011.2 |
| 20260506094019 | 43 | 164 | 8.0 | 14.0 | 0.00 | 0.00 | 0.00 | 63 | 1011.2 |
| 20260506093515 | 43 | 164 | 7.0 | 14.0 | 0.00 | 0.00 | 0.00 | 63 | 1011.0 |
| 20260506093035 | 43 | 198 | 5.0 | 14.0 | 0.00 | 0.00 | 0.00 | 62 | 1010.9 |
| 20260506092517 | 43 | 176 | 6.0 | 14.0 | 0.00 | 0.00 | 0.00 | 62 | 1011.0 |
| 20260506092019 | 43 | 158 | 7.0 | 14.0 | 0.00 | 0.00 | 0.00 | 61 | 1011.0 |
| 20260506091532 | 43 | 166 | 8.0 | 15.0 | 0.00 | 0.00 | 0.00 | 61 | 1011.0 |
| 20260506091014 | 44 | 156 | 8.0 | 15.0 | 0.00 | 0.00 | 0.00 | 60 | 1011.0 |
| 20260506090514 | 44 | 191 | 8.0 | 13.0 | 0.00 | 0.00 | 0.00 | 60 | 1010.9 |
| 20260506090033 | 44 | 185 | 6.0 | 12.0 | 0.00 | 0.00 | 0.00 | 59 | 1011.0 |
| 20260506085518 | 44 | 175 | 8.0 | 14.0 | 0.00 | 0.00 | 0.00 | 58 | 1011.0 |
| 20260506085014 | 44 | 158 | 8.0 | 14.0 | 0.00 | 0.00 | 0.00 | 57 | 1011.0 |
| 20260506084534 | 45 | 176 | 6.0 | 12.0 | 0.00 | 0.00 | 0.00 | 56 | 1010.9 |
| 20260506084014 | 45 | 179 | 5.0 | 12.0 | 0.00 | 0.00 | 0.00 | 55 | 1010.9 |
| 20260506083516 | 45 | 170 | 8.0 | 12.0 | 0.00 | 0.00 | 0.00 | 55 | 1011.0 |
| 20260506083031 | 45 | 196 | 7.0 | 13.0 | 0.00 | 0.00 | 0.00 | 54 | 1011.0 |
| 20260506082516 | 45 | 213 | 5.0 | 13.0 | 0.00 | 0.00 | 0.00 | 55 | 1011.3 |
| 20260506082013 | 45 | 196 | 4.0 | 10.0 | 0.00 | 0.00 | 0.00 | 55 | 1011.2 |
| 20260506081534 | 45 | 201 | 6.0 | 14.0 | 0.00 | 0.00 | 0.00 | 55 | 1011.2 |
| 20260506081013 | 45 | 261 | 9.0 | 14.0 | 0.00 | 0.00 | 0.00 | 54 | 1011.3 |
| 20260506080514 | 45 | 197 | 8.0 | 13.0 | 0.00 | 0.00 | 0.00 | 54 | 1011.4 |
| 20260506073514 | 44 | 0 | 0.0 | 4.0 | 0.00 | 0.00 | 0.00 | 55 | 1011.4 |
| 20260506073032 | 44 | 0 | 0.0 | 4.0 | 0.00 | 0.00 | 0.00 | 54 | 1011.4 |
| 20260506072515 | 44 | 74 | 2.0 | 5.0 | 0.00 | 0.00 | 0.00 | 54 | 1011.3 |
| 20260506072014 | 45 | 75 | 2.0 | 5.0 | 0.00 | 0.00 | 0.00 | 52 | 1011.3 |
| 20260506071534 | 45 | 91 | 1.0 | 2.0 | 0.00 | 0.00 | 0.00 | 52 | 1011.3 |
| 20260506071014 | 46 | 137 | 1.0 | 7.0 | 0.00 | 0.00 | 0.00 | 51 | 1011.5 |
| 20260506070516 | 46 | 0 | 1.0 | 7.0 | 0.00 | 0.00 | 0.00 | 51 | 1011.4 |
| 20260506062016 | 46 | 140 | 2.0 | 7.0 | 0.00 | 0.00 | 0.00 | 51 | 1011.3 |
| 20260506061534 | 46 | 203 | 2.0 | 7.0 | 0.00 | 0.00 | 0.00 | 52 | 1011.3 |
| 20260506061014 | 46 | 188 | 0.0 | 5.0 | 0.00 | 0.00 | 0.00 | 51 | 1011.3 |
| 20260506060515 | 46 | 206 | 3.0 | 6.0 | 0.00 | 0.00 | 0.00 | 51 | 1011.3 |
| 20260506051020 | 46 | 252 | 5.0 | 12.0 | 0.00 | 0.00 | 0.00 | 48 | 1010.7 |
| 20260506050513 | 45 | 266 | 5.0 | 12.0 | 0.00 | 0.00 | 0.00 | 47 | 1010.7 |
| 20260506045013 | 45 | 272 | 5.0 | 11.0 | 0.00 | 0.00 | 0.00 | 44 | 1010.4 |
| 20260506044535 | 45 | 290 | 4.0 | 11.0 | 0.00 | 0.00 | 0.00 | 34 | 1010.4 |
| 20260506044012 | 47 | 272 | 5.0 | 15.0 | 0.00 | 0.00 | 0.00 | 47 | 1010.4 |
| 20260506043513 | 48 | 262 | 7.0 | 17.0 | 0.00 | 0.00 | 0.00 | 46 | 1010.1 |
| 20260506043034 | 48 | 218 | 10.0 | 17.0 | 0.00 | 0.00 | 0.00 | 44 | 1009.9 |
| 20260506042515 | 48 | 214 | 8.0 | 15.0 | 0.00 | 0.00 | 0.00 | 42 | 1009.8 |
| 20260506042015 | 48 | 201 | 8.0 | 14.0 | 0.00 | 0.00 | 0.00 | 37 | 1009.6 |
| 20260506041533 | 48 | 196 | 8.0 | 14.0 | 0.00 | 0.00 | 0.00 | 36 | 1009.5 |
| 20260506041013 | 48 | 192 | 5.0 | 8.0 | 0.00 | 0.00 | 0.00 | 25 | 1009.5 |
| 20260506040513 | 49 | 207 | 4.0 | 10.0 | 0.00 | 0.00 | 0.00 | 24 | 1009.4 |
| 20260506040031 | 49 | 203 | 5.0 | 10.0 | 0.00 | 0.00 | 0.00 | 24 | 1009.3 |
| 20260506035518 | 48 | 224 | 6.0 | 10.0 | 0.00 | 0.00 | 0.00 | 24 | 1009.3 |
| 20260506035014 | 48 | 202 | 5.0 | 8.0 | 0.00 | 0.00 | 0.00 | 24 | 1009.2 |
| 20260506034534 | 48 | 193 | 4.0 | 6.0 | 0.00 | 0.00 | 0.00 | 24 | 1009.2 |
| 20260506034015 | 48 | 211 | 4.0 | 8.0 | 0.00 | 0.00 | 0.00 | 24 | 1009.3 |
| 20260506033515 | 48 | 191 | 4.0 | 8.0 | 0.00 | 0.00 | 0.00 | 24 | 1009.0 |
| 20260506033030 | 48 | 207 | 5.0 | 8.0 | 0.00 | 0.00 | 0.00 | 25 | 1009.2 |
| 20260506032514 | 49 | 228 | 4.0 | 6.0 | 0.00 | 0.00 | 0.00 | 25 | 1009.0 |
| 20260506032016 | 49 | 206 | 4.0 | 8.0 | 0.00 | 0.00 | 0.00 | 25 | 1009.0 |
| 20260506031533 | 50 | 203 | 4.0 | 8.0 | 0.00 | 0.00 | 0.00 | 25 | 1009.0 |
| 20260506031017 | 50 | 220 | 6.0 | 9.0 | 0.00 | 0.00 | 0.00 | 25 | 1008.9 |
| 20260506030513 | 50 | 210 | 5.0 | 9.0 | 0.00 | 0.00 | 0.00 | 25 | 1008.8 |
| 20260506030037 | 50 | 206 | 4.0 | 5.0 | 0.00 | 0.00 | 0.00 | 26 | 1008.8 |
| 20260506025513 | 50 | 191 | 3.0 | 6.0 | 0.00 | 0.00 | 0.00 | 26 | 1008.6 |
| 20260506025015 | 50 | 200 | 3.0 | 6.0 | 0.00 | 0.00 | 0.00 | 26 | 1008.5 |
| 20260506024542 | 50 | 207 | 3.0 | 5.0 | 0.00 | 0.00 | 0.00 | 26 | 1008.5 |
| 20260506024013 | 50 | 228 | 3.0 | 5.0 | 0.00 | 0.00 | 0.00 | 26 | 1008.5 |
| 20260506023513 | 50 | 233 | 3.0 | 6.0 | 0.00 | 0.00 | 0.00 | 26 | 1008.4 |
| 20260506023034 | 51 | 240 | 4.0 | 6.0 | 0.00 | 0.00 | 0.00 | 26 | 1008.2 |
| 20260506022515 | 50 | 264 | 4.0 | 5.0 | 0.00 | 0.00 | 0.00 | 27 | 1008.1 |
| 20260506022015 | 51 | 260 | 3.0 | 5.0 | 0.00 | 0.00 | 0.00 | 27 | 1008.0 |
| 20260506021530 | 51 | 255 | 3.0 | 10.0 | 0.00 | 0.00 | 0.00 | 26 | 1007.9 |
| 20260506021013 | 52 | 247 | 4.0 | 10.0 | 0.00 | 0.00 | 0.00 | 25 | 1007.7 |
| 20260506020514 | 53 | 229 | 5.0 | 9.0 | 0.00 | 0.00 | 0.00 | 24 | 1007.6 |
| 20260506020034 | 53 | 237 | 5.0 | 9.0 | 0.00 | 0.00 | 0.00 | 24 | 1007.6 |
| 20260506015513 | 54 | 234 | 5.0 | 10.0 | 0.00 | 0.00 | 0.00 | 23 | 1007.5 |
| 20260506015014 | 54 | 215 | 7.0 | 10.0 | 0.00 | 0.00 | 0.00 | 23 | 1007.5 |
| 20260506014536 | 54 | 241 | 7.0 | 12.0 | 0.00 | 0.00 | 0.00 | 23 | 1007.3 |
| 20260506014012 | 55 | 230 | 7.0 | 14.0 | 0.00 | 0.00 | 0.00 | 22 | 1007.3 |
| 20260506013513 | 56 | 225 | 10.0 | 14.0 | 0.00 | 0.00 | 0.00 | 21 | 1007.2 |
| 20260506013035 | 56 | 238 | 5.0 | 13.0 | 0.00 | 0.00 | 0.00 | 22 | 1007.2 |
| 20260506012513 | 57 | 238 | 7.0 | 13.0 | 0.00 | 0.00 | 0.00 | 22 | 1007.1 |
| 20260506012015 | 57 | 233 | 7.0 | 14.0 | 0.00 | 0.00 | 0.00 | 20 | 1007.0 |
| 20260506011534 | 58 | 238 | 7.0 | 15.0 | 0.00 | 0.00 | 0.00 | 21 | 1007.1 |
| 20260506011014 | 58 | 250 | 10.0 | 18.0 | 0.00 | 0.00 | 0.00 | 20 | 1007.1 |
| 20260506010513 | 58 | 232 | 12.0 | 18.0 | 0.00 | 0.00 | 0.00 | 20 | 1007.1 |
| 20260506010034 | 57 | 229 | 8.0 | 13.0 | 0.00 | 0.00 | 0.00 | 21 | 1007.1 |
| 20260506005512 | 57 | 229 | 5.0 | 12.0 | 0.00 | 0.00 | 0.00 | 21 | 1007.0 |
| 20260506005013 | 57 | 202 | 7.0 | 12.0 | 0.00 | 0.00 | 0.00 | 21 | 1007.2 |
| 20260506004531 | 57 | 203 | 7.0 | 12.0 | 0.00 | 0.00 | 0.00 | 20 | 1007.2 |
| 20260506004013 | 57 | 238 | 7.0 | 12.0 | 0.00 | 0.00 | 0.00 | 21 | 1007.3 |
| 20260506003517 | 58 | 250 | 5.0 | 12.0 | 0.00 | 0.00 | 0.00 | 21 | 1007.2 |
| 20260506003036 | 58 | 226 | 8.0 | 17.0 | 0.00 | 0.00 | 0.00 | 20 | 1007.2 |
| 20260506002513 | 60 | 225 | 7.0 | 18.0 | 0.00 | 0.00 | 0.00 | 20 | 1007.2 |
| 20260506002017 | 59 | 193 | 10.0 | 18.0 | 0.00 | 0.00 | 0.00 | 18 | 1007.3 |
| 20260506001538 | 60 | 252 | 11.0 | 16.0 | 0.00 | 0.00 | 0.00 | 19 | 1007.1 |
| 20260506001013 | 60 | 229 | 8.0 | 19.0 | 0.00 | 0.00 | 0.00 | 19 | 1007.1 |
| 20260506000514 | 60 | 246 | 9.0 | 19.0 | 0.00 | 0.00 | 0.00 | 19 | 1007.1 |
| 20260506000035 | 60 | 204 | 12.0 | 18.0 | 0.00 | 0.00 | 0.00 | 19 | 1007.1 |
| 20260505235513 | 60 | 204 | 10.0 | 18.0 | 0.00 | 0.00 | 0.00 | 18 | 1007.1 |
| 20260505235015 | 60 | 246 | 12.0 | 18.0 | 0.00 | 0.00 | 0.00 | 18 | 1007.1 |
| 20260505234536 | 60 | 213 | 7.0 | 18.0 | 0.00 | 0.00 | 0.00 | 18 | 1007.1 |
| 20260505234013 | 60 | 228 | 11.0 | 18.0 | 0.00 | 0.00 | 0.00 | 17 | 1007.2 |
| 20260505233513 | 61 | 245 | 11.0 | 17.0 | 0.00 | 0.00 | 0.00 | 18 | 1007.2 |
| 20260505233031 | 60 | 248 | 12.0 | 17.0 | 0.00 | 0.00 | 0.00 | 17 | 1007.4 |
| 20260505232515 | 61 | 257 | 10.0 | 19.0 | 0.00 | 0.00 | 0.00 | 17 | 1007.3 |
| 20260505232013 | 61 | 255 | 11.0 | 19.0 | 0.00 | 0.00 | 0.00 | 20 | 1007.5 |
| 20260505231537 | 61 | 220 | 10.0 | 20.0 | 0.00 | 0.00 | 0.00 | 18 | 1007.4 |
| 20260505231013 | 61 | 222 | 13.0 | 20.0 | 0.00 | 0.00 | 0.00 | 17 | 1007.6 |
| 20260505230512 | 60 | 245 | 13.0 | 20.0 | 0.00 | 0.00 | 0.00 | 19 | 1007.7 |
| 20260505230048 | 60 | 212 | 7.0 | 17.0 | 0.00 | 0.00 | 0.00 | 18 | 1007.7 |
| 20260505225516 | 59 | 245 | 11.0 | 17.0 | 0.00 | 0.00 | 0.00 | 17 | 1007.8 |
| 20260505225014 | 60 | 202 | 10.0 | 18.0 | 0.00 | 0.00 | 0.00 | 18 | 1008.0 |
| 20260505224530 | 59 | 214 | 13.0 | 18.0 | 0.00 | 0.00 | 0.00 | 17 | 1008.0 |
| 20260505224011 | 60 | 257 | 11.0 | 18.0 | 0.00 | 0.00 | 0.00 | 17 | 1008.0 |
| 20260505223516 | 60 | 212 | 11.0 | 19.0 | 0.00 | 0.00 | 0.00 | 15 | 1008.1 |
| 20260505223033 | 60 | 219 | 12.0 | 19.0 | 0.00 | 0.00 | 0.00 | 14 | 1008.2 |
| 20260505222513 | 59 | 229 | 9.0 | 19.0 | 0.00 | 0.00 | 0.00 | 18 | 1008.2 |
| 20260505222013 | 59 | 226 | 14.0 | 19.0 | 0.00 | 0.00 | 0.00 | 18 | 1008.3 |
| 20260505221532 | 59 | 252 | 11.0 | 20.0 | 0.00 | 0.00 | 0.00 | 18 | 1008.2 |
| 20260505221019 | 59 | 236 | 13.0 | 20.0 | 0.00 | 0.00 | 0.00 | 19 | 1008.4 |
| 20260505220512 | 59 | 227 | 13.0 | 20.0 | 0.00 | 0.00 | 0.00 | 20 | 1008.4 |
| 20260505220033 | 58 | 248 | 10.0 | 19.0 | 0.00 | 0.00 | 0.00 | 20 | 1008.5 |
| 20260505215514 | 58 | 266 | 13.0 | 19.0 | 0.00 | 0.00 | 0.00 | 20 | 1008.6 |
| 20260505215011 | 59 | 235 | 12.0 | 24.0 | 0.00 | 0.00 | 0.00 | 18 | 1008.7 |
| 20260505214530 | 58 | 224 | 14.0 | 25.0 | 0.00 | 0.00 | 0.00 | 18 | 1008.8 |
| 20260505214017 | 58 | 250 | 12.0 | 25.0 | 0.00 | 0.00 | 0.00 | 21 | 1008.8 |
| 20260505213514 | 58 | 229 | 17.0 | 25.0 | 0.00 | 0.00 | 0.00 | 20 | 1009.0 |
| 20260505213032 | 58 | 229 | 13.0 | 23.0 | 0.00 | 0.00 | 0.00 | 20 | 1008.9 |
| 20260505212513 | 58 | 217 | 14.0 | 23.0 | 0.00 | 0.00 | 0.00 | 21 | 1008.9 |
| 20260505212015 | 59 | 250 | 13.0 | 23.0 | 0.00 | 0.00 | 0.00 | 21 | 1008.9 |
| 20260505211534 | 59 | 226 | 14.0 | 22.0 | 0.00 | 0.00 | 0.00 | 18 | 1008.8 |
| 20260505211015 | 60 | 264 | 14.0 | 26.0 | 0.00 | 0.00 | 0.00 | 19 | 1008.9 |
| 20260505210513 | 60 | 230 | 18.0 | 26.0 | 0.00 | 0.00 | 0.00 | 17 | 1009.0 |
| 20260505210034 | 59 | 217 | 13.0 | 30.0 | 0.00 | 0.00 | 0.00 | 20 | 1009.0 |
| 20260505205517 | 59 | 246 | 17.0 | 30.0 | 0.00 | 0.00 | 0.00 | 18 | 1009.0 |
| 20260505205019 | 61 | 257 | 20.0 | 30.0 | 0.00 | 0.00 | 0.00 | 15 | 1009.1 |
| 20260505204532 | 60 | 252 | 8.0 | 28.0 | 0.00 | 0.00 | 0.00 | 19 | 1009.0 |
| 20260505204013 | 60 | 232 | 15.0 | 28.0 | 0.00 | 0.00 | 0.00 | 19 | 1009.2 |
| 20260505203512 | 60 | 235 | 15.0 | 24.0 | 0.00 | 0.00 | 0.00 | 17 | 1009.1 |
| 20260505203031 | 60 | 194 | 15.0 | 25.0 | 0.00 | 0.00 | 0.00 | 18 | 1009.2 |